• Processing (Info)

  • MPEC 2022-P13 : 2022 OL5

    The following Minor Planet Electronic Circular may be linked-to from your own Web pages, but must not otherwise be redistributed electronically.

    A form allowing access to any MPEC is at the bottom of this page.


    Read MPEC 2022-P12 Read MPEC 2022-P14


    M.P.E.C. 2022-P13                                Issued 2022 August 1, 20:25 UT
    
         The Minor Planet Electronic Circulars contain information on unusual
             minor planets and routine data on comets.  They are published
        on behalf of Division F of the International Astronomical Union by the
              Minor Planet Center, Smithsonian Astrophysical Observatory,
                              Cambridge, MA 02138, U.S.A.
    
                 Prepared using the Tamkin Foundation Computer Network
    
                                  MPC@CFA.HARVARD.EDU
                URL https://www.minorplanetcenter.net/    ISSN 1523-6714
    
                                    2022 OL5                                 
    
    
    Observations:
         K22O05L* C2022 07 30.34529521 23 17.540+16 07 04.00         20.53wUEP013F52
         K22O05L  C2022 07 30.35679321 23 14.824+16 04 54.98         20.95wUEP013F52
         K22O05L  C2022 07 30.36830421 23 12.111+16 02 45.43         20.53wUEP013F52
         K22O05L  C2022 07 30.51810121 22 35.931+15 34 42.17         20.54GVEP013F52
         K22O05L  C2022 07 30.51873221 22 35.790+15 34 35.19         20.38GVEP013F52
         K22O05L KC2022 07 30.88306921 21 30.11 +14 26 55.0                XEP013958
         K22O05L KC2022 07 30.89655421 21 27.30 +14 24 30.7          20.5 GXEP013958
         K22O05L KC2022 07 30.90993821 21 24.33 +14 22 05.4          19.9 GXEP013958
         K22O05L HC2022 07 30.91728 21 21 22.16 +14 20 47.2          20.8 GVEP013204
         K22O05L HC2022 07 30.94083 21 21 16.99 +14 16 33.4                VEP013204
         K22O05L KC2022 07 30.96204 21 21 12.17 +14 12 47.4                VEP013104
         K22O05L KC2022 07 30.98299 21 21 07.58 +14 09 02.8          20.4 GVEP013104
         K22O05L KC2022 07 31.05633321 20 52.37 +13 55 56.2          20.4 GXEP013I93
         K22O05L KC2022 07 31.06070 21 20 50.54 +13 55 06.4          19.0 RVEP013K51
         K22O05L KC2022 07 31.06141721 20 51.28 +13 55 01.9          20.2 GXEP013I93
         K22O05L KC2022 07 31.06543 21 20 49.51 +13 54 15.6          19.9 RVEP013K51
         K22O05L KC2022 07 31.06649921 20 50.18 +13 54 07.7          20.2 GXEP013I93
         K22O05L KC2022 07 31.06985 21 20 48.54 +13 53 28.4          19.9 RVEP013K51
         K22O05L KC2022 07 31.08205 21 20 45.94 +13 51 17.5          20.1 RVEP013K51
         K22O05L  C2022 07 31.37534021 19 57.120+13 00 24.97         20.42wUEP013F52
         K22O05L  C2022 07 31.37660621 19 56.875+13 00 11.87         20.46wUEP013F52
         K22O05L  C2022 07 31.38745521 19 54.517+12 58 19.72         20.67wUEP013F52
         K22O05L  C2022 07 31.39701221 19 52.460+12 56 41.86         19.90wUEP013F52
         K22O05L  C2022 07 31.40790421 19 50.088+12 54 49.00         20.71wUEP013F52
         K22O05L  C2022 07 31.40916421 19 49.800+12 54 35.58         20.51wUEP013F52
         K22O05L KC2022 07 31.83410 21 18 36.31 +11 41 51.0                VEP013C82
         K22O05L KC2022 07 31.85704 21 18 31.91 +11 38 03.3                VEP013C82
         K22O05L KC2022 07 31.88604 21 18 26.29 +11 33 09.0          19.7 GXEP013G15
         K22O05L KC2022 07 31.89905 21 18 23.69 +11 31 01.1          20.7 GXEP013G15
    
    Observer details:
    104 San Marcello Pistoiese.  Observers P. Bacci, M. Maestripieri.  Measurers
        P. Bacci, L. Tesi, G. Fagioli.  0.60-m f/4.0 reflector + CCD.
    204 Schiaparelli Observatory.  Observer L. Buzzi.  0.84-m f/3.5 reflector +
        CCD.
    958 Observatoire de Dax.  Observers P. Dupouy, J. B. de Vanssay.  Measurer P.
        Dupouy.  0.43-m f/2.7 Reflector + CCD.
    C82 Osservatorio Astronomico Nastro Verde, Sorrento.  Observer N. Ruocco.
        0.35-m f/6.3 0.35 m f/6.3 Schmidt-Cassegrain + CCD.
    F52 Pan-STARRS 2, Haleakala.  Observers J. Bulger, T. Lowe, A. Schultz, I.
        Smith, K. Chambers, T. Dukes.  Measurers K. Chambers, S. Chastel, T. de
        Boer, J. Fairlamb, H. Gao, M. Huber, C.-C. Lin, E. Magnier, Y.
        Ramanjooloo, R. Wainscoat, R. Weryk.  1.8-m Ritchey-Chretien + CCD.
    G15 Magroforte Observatory, Alessandria.  Observer A. De Pieri.  0.23-m f/6.7
        Sc  + CCD.
    I93 St Pardon de Conques.  Observer F. Losse.  0.40-m f/3.7 reflector + CCD.
    K51 Osservatorio del Celado, Castello Tesino.  Observer M. Campestrin.  0.80-m
        f/4 reflector + CCD.
    
    Orbital elements:
    2022 OL5                                                 Earth MOID = 0.0239 AU
    Epoch 2022 Aug. 9.0 TT = JDT 2459800.5                  Veres                   
    M  57.26479              (2000.0)            P               Q                  
    n   0.71340633     Peri.   66.21073     -0.82288228     +0.56477169             
    a   1.2404466      Node   148.07221     -0.55478537     -0.77482965             
    e   0.3834366      Incl.    6.77966     -0.12279229     -0.28402807             
    P   1.38           H   24.20          G   0.15           U   8                  
    Residuals in seconds of arc
    220730 F52  0.2+  0.0     220730 104 (0.7-  1.0-)   220731 F52  0.1+  0.3-
    220730 F52  0.0   0.1+    220730 104  0.2-  0.5-    220731 F52  0.1-  0.4-
    220730 F52  0.1+  0.1-    220731 I93  0.2-  0.3+    220731 F52  0.1+  0.5+
    220730 F52  0.2-  0.3-    220731 K51  0.1+  0.3+    220731 F52  0.1+  0.2+
    220730 F52  0.1-  0.2-    220731 I93  0.1+  0.4+    220731 F52  0.1-  0.2-
    220730 958  0.4-  0.9-    220731 K51  0.0   0.2+    220731 C82  1.2+  0.3+
    220730 958  0.2+  0.2-    220731 I93  0.2+  0.6+    220731 C82  1.5+  0.1+
    220730 958  1.5-  1.6-    220731 K51  0.3-  0.4+    220731 G15  0.3+  0.5-
    220730 204  0.7+  0.3+    220731 K51  0.0   0.3+    220731 G15  0.7-  0.3+
    220730 204  0.1+  0.2-    220731 F52  0.3-  0.3-
    
    Ephemeris:
    2022 OL5                 a,e,i = 1.24, 0.38, 7                   q = 0.7648
    Date    TT    R. A. (2000) Decl.     Delta      r    Elong.  Phase     V
    2022 07 02    07 27 59.6 +58 28 01   0.1373  0.9097    36.3   138.6    26.4
    ...
    2022 07 17    00 17 30.3 +71 42 27   0.07315 1.0016    76.3    99.6    22.1
    ...
    2022 07 25    21 49 27.2 +36 47 36   0.07154 1.0527   119.3    57.3    20.7
    ...
    2022 07 31    21 21 03.9 +14 06 57   0.09025 1.0911   145.9    31.4    20.5
    2022 08 01    21 18 03.8 +11 15 23   0.09456 1.0975   149.4    28.1    20.5
    2022 08 02    21 15 21.9 +08 38 04   0.09914 1.1039   152.6    25.0    20.6
    ...
    2022 08 08    21 03 42.8 -03 05 05   0.1310  1.1419   166.7    11.8    20.8
    ...
    2022 08 16    20 55 30.5 -11 54 14   0.1819  1.1916   168.8     9.5    21.5
    ...
    2022 08 31    20 52 06.0 -19 15 51   0.2967  1.2806   152.8    21.1    23.1
    
    M. P. C. Staff               (C) Copyright 2022 MPC           M.P.E.C. 2022-P13
    


    Read MPEC 2022-P12 Read MPEC 2022-P14


    MPEC number:

    Enter an MPEC number in one of the following forms:

    • 1997-B01 (the full form)
    • J97B01 (the packed version of the full form)
    • B01 (the abbreviated form)